Location: Antioch Baptist Church
(32.6696°N, 85.7327°W)
Time: 20:50:42
(UTC+00:00)

BREEZE-M DEB (TANK) - Pass Details

Date: 14 July 2020
Orbit: 275 x 20501 km, 49.2° (Epoch: 13 August)

Event Time Altitude Azimuth Distance (km) Brightness Sun altitude
Rises 01:23:38 0° 228° (SW) 9,913 9.4 -6.6°
Reaches altitude 10° 01:33:36 10° 230° (SW) 6,141 8.3 -8.4°
Maximum altitude 01:46:04 81° 318° (NW) 875 3.9 -10.6°
Drops below altitude 10° 01:49:17 10° 46° (NE) 1,690 5.2 -11.2°
Sets 01:50:32 0° 48° (NE) 2,298 5.9 -11.4°
